Wind_Speed
15 15 15 15 14 13 12 11 11 11 11 11 11 10 10 9 7 8 8 6 6 6 7 8 8 8 9 8 9 9 9 10 10 11 12 12 12 13 14 14 14 15 15 15 15 15 15 15 15
16 16 16 16 15 13 12 13 13 13 12 11 11 11 10 9 8 8 8 7 7 7 8 8 9 9 9 9 9 10 10 11 12 12 13 13 14 14 14 15 15 16 16 16 16 16 15 15 15
16 17 16 15 14 14 13 14 14 13 13 13 11 11 10 9 9 9 8 8 8 9 9 10 10 10 10 10 10 11 11 12 13 14 14 14 14 15 15 15 16 17 18 17 17 16 16 16 15
15 15 15 15 15 15 15 15 16 15 13 13 13 12 12 11 10 10 9 8 9 11 11 11 11 11 11 11 11 12 12 13 14 15 14 15 15 15 16 17 17 18 18 17 17 17 16 17 17
16 16 16 16 16 16 16 17 16 15 13 14 14 13 13 13 11 10 9 8 9 11 12 12 12 12 12 13 13 13 14 14 15 15 15 15 16 16 17 18 18 18 18 18 18 17 18 18 18
16 16 17 16 16 16 17 16 16 15 14 14 14 14 14 14 12 11 10 10 11 12 12 13 13 13 13 13 13 14 15 15 15 15 16 16 17 18 18 18 19 19 19 19 18 18 19 19 19
17 17 17 17 16 17 18 18 17 16 15 14 15 15 15 13 11 11 11 12 12 12 12 13 13 13 13 13 13 14 14 15 16 16 16 17 18 18 19 19 20 20 19 19 19 19 20 21 21
16 17 17 16 16 17 19 17 17 16 15 15 14 14 14 14 13 13 13 13 13 13 13 14 13 13 13 13 14 14 14 15 16 16 17 17 18 19 19 20 20 20 20 20 20 20 21 22 22
16 17 16 16 16 17 17 17 18 16 16 15 13 13 13 13 13 13 12 13 13 13 14 15 14 14 14 15 15 15 16 16 17 17 17 18 19 19 20 20 21 20 21 21 21 21 22 23 23
14 15 15 15 16 16 17 17 17 17 16 15 14 13 14 14 13 14 14 14 14 14 15 16 15 15 15 16 16 16 17 18 18 19 19 19 19 19 20 20 20 21 21 21 22 22 22 23 23
13 13 14 15 16 17 18 18 16 16 16 16 15 15 15 14 14 15 15 15 16 16 17 17 17 17 17 17 17 18 19 19 19 20 20 21 20 20 20 20 21 21 22 22 22 23 23 23 23
13 14 14 14 15 17 18 18 17 16 16 17 17 16 16 15 15 16 17 17 18 18 18 18 17 17 17 17 18 19 20 21 22 22 22 22 22 22 22 21 21 22 22 23 24 23 24 24 23
13 14 15 15 16 17 17 17 17 17 16 17 17 17 17 17 17 16 17 18 18 18 18 19 18 18 18 18 19 19 20 22 22 23 22 22 23 22 23 23 23 23 24 24 24 25 24 24 24
13 14 15 16 16 17 17 17 18 18 19 19 19 19 19 18 17 17 18 19 19 19 19 19 18 18 19 19 20 21 22 23 25 25 25 24 23 23 23 23 24 25 25 25 25 25 25 25 25
13 14 15 17 17 17 17 18 19 18 19 20 21 21 20 19 18 18 19 19 20 20 20 20 19 19 20 20 21 22 23 24 24 25 26 25 24 24 24 24 25 26 26 26 26 26 25 26 26
14 15 15 16 18 18 18 17 17 18 19 20 21 22 22 20 19 19 19 20 20 21 21 21 21 21 21 22 22 23 24 24 25 25 26 26 26 27 26 25 26 27 26 26 25 25 25 25 25
13 14 15 15 17 17 18 18 17 18 20 20 21 22 22 21 21 20 21 21 22 22 22 22 22 23 23 23 23 23 24 25 25 25 25 26 27 27 27 27 27 28 27 26 26 25 26 26 27
12 14 15 15 16 17 18 19 19 19 19 20 20 21 22 22 21 21 21 21 23 24 24 23 23 23 23 24 24 24 25 26 26 27 27 27 27 28 28 28 28 28 27 27 28 28 28 28 28
13 14 15 15 15 17 17 18 17 18 18 18 18 19 20 19 20 21 22 22 22 23 23 23 23 23 23 24 24 24 25 26 27 27 27 28 28 29 29 29 29 29 29 30 30 30 30 29 28
12 13 13 13 14 16 16 17 17 17 16 16 17 17 18 18 19 20 21 21 22 22 22 23 23 24 23 23 23 24 25 25 26 27 29 30 30 30 30 30 30 30 31 31 30 30 31 30 30
12 12 12 13 14 16 17 15 15 15 15 15 16 16 17 17 18 19 19 19 20 20 21 22 23 23 23 23 23 24 24 24 25 27 29 30 30 30 30 30 30 30 30 30 30 30 31 30 30
11 11 12 13 14 14 15 15 13 14 14 14 15 15 15 16 17 18 18 18 19 20 21 20 20 21 21 22 23 24 25 26 27 28 29 30 30 30 29 29 30 30 30 30 29 29 29 30 30
12 11 11 12 12 13 13 13 12 12 13 14 14 14 14 15 16 17 17 18 18 19 19 19 20 21 21 22 24 25 25 26 27 28 29 30 29 29 28 29 29 29 29 28 28 28 29 29 30
12 12 12 12 12 12 13 13 12 13 13 14 14 14 14 14 15 16 16 16 17 17 18 19 20 20 21 22 23 24 25 26 27 27 28 28 27 28 28 28 28 28 28 28 28 28 29 29 29
12 11 12 11 10 10 10 11 11 12 13 13 14 14 14 15 15 15 16 17 17 17 18 19 19 20 21 22 22 23 25 25 26 27 27 26 27 28 28 28 28 28 28 27 27 28 28 28 29
10 10 11 12 11 10 9 9 10 10 11 13 13 13 13 14 14 15 16 17 17 17 18 18 19 19 20 20 22 23 24 24 25 25 26 26 27 27 27 27 27 27 26 26 26 26 27 28 29
9 9 9 11 10 10 10 10 10 10 10 11 10 10 12 13 14 14 15 16 16 17 18 19 19 19 19 20 21 22 22 22 23 23 24 25 25 26 25 25 26 26 26 25 26 26 27 28 29
9 9 9 9 10 10 10 11 11 10 10 10 10 10 11 12 13 14 15 15 16 17 18 17 17 17 17 18 20 20 21 22 21 22 23 24 24 24 24 24 25 25 25 25 25 26 27 27 28
10 10 10 10 10 11 11 10 11 11 11 11 10 10 11 12 13 13 14 14 15 15 15 15 15 16 16 17 19 20 21 20 20 21 21 22 23 23 23 23 23 23 23 24 25 25 26 27 27
11 11 11 11 11 10 10 9 10 10 10 9 9 10 11 12 12 12 12 12 13 13 14 15 15 15 16 17 18 19 19 19 20 20 21 22 22 22 22 22 22 22 23 23 24 25 26 26 26
Wind_Direction
233 231 233 234 234 232 228 219 221 226 227 233 242 244 247 251 254 259 265 267 271 288 293 292 295 297 297 299 305 313 315 314 315 316 316 316 316 317 317 318 317 317 316 313 313 311 311 310 309
234 233 233 233 232 228 223 220 219 227 232 238 243 247 247 256 261 263 263 265 274 283 290 288 293 295 294 297 301 305 310 310 312 312 311 311 311 312 313 313 314 313 313 311 310 309 309 308 307
234 233 233 234 232 227 221 221 224 229 235 240 242 246 246 253 258 262 266 266 276 282 288 290 290 292 291 293 298 301 305 307 309 309 308 309 309 308 308 309 310 310 311 309 307 307 307 307 306
234 232 232 232 230 227 224 222 226 232 235 240 244 244 247 249 252 255 259 269 276 276 281 286 285 288 290 293 296 298 303 305 305 304 304 305 305 303 304 306 307 309 308 307 304 303 302 302 301
233 231 230 230 228 226 224 222 227 230 234 240 246 247 249 250 253 252 255 259 268 274 279 280 282 283 287 291 292 293 297 299 300 300 303 303 302 301 302 303 303 304 304 303 303 299 299 298 297
232 229 229 228 226 225 224 226 231 236 235 242 251 254 255 256 256 256 262 262 267 274 277 278 281 284 288 290 292 292 292 293 295 298 301 300 299 300 301 302 301 300 301 301 300 299 296 294 293
232 229 230 230 227 227 225 230 232 234 239 246 254 254 257 264 263 261 262 263 269 275 278 280 284 288 290 291 292 292 291 291 292 294 297 297 298 299 300 300 298 297 297 297 298 297 294 292 291
232 229 230 229 228 229 228 230 234 236 241 248 255 259 265 270 273 267 266 268 271 277 281 283 282 285 287 288 288 287 286 290 290 291 293 294 294 295 297 296 295 292 291 294 296 294 294 293 289
230 229 228 225 226 227 230 228 233 238 242 246 254 260 267 271 274 267 268 272 276 279 280 281 280 281 283 285 287 286 286 286 286 287 289 291 293 293 293 293 295 293 291 292 295 294 294 294 291
230 231 227 225 227 228 230 229 233 237 242 247 254 260 263 265 269 270 272 276 276 278 283 284 281 281 285 286 286 284 284 284 284 285 287 290 291 291 292 292 292 294 294 293 294 294 293 293 291
225 226 226 229 232 229 231 233 235 240 244 249 256 261 265 265 266 267 270 274 275 278 281 285 289 289 288 285 282 280 283 284 284 286 288 288 287 287 288 290 290 291 292 292 292 293 292 292 292
225 226 228 228 233 233 235 239 242 245 248 252 255 260 267 269 269 264 266 269 274 279 282 285 289 290 286 281 282 283 285 286 284 286 287 285 285 286 287 289 290 290 291 291 291 292 292 291 291
230 230 231 232 236 238 239 244 247 248 250 255 261 265 269 271 269 267 269 274 277 278 280 283 283 283 286 284 284 283 284 286 288 290 290 289 288 286 288 288 289 290 290 290 291 290 289 289 289
233 234 233 234 240 244 244 248 251 250 251 255 260 261 265 266 266 268 269 274 276 279 280 280 281 281 282 282 281 282 284 285 289 291 290 292 290 290 290 287 287 289 289 288 289 289 287 288 289
236 238 236 237 242 246 248 247 251 254 255 257 259 262 265 264 263 265 269 272 276 278 278 279 281 283 283 282 280 281 283 285 287 288 289 290 291 290 290 292 289 289 287 286 287 286 286 286 287
240 241 243 246 250 255 257 254 254 255 259 261 262 262 263 261 261 263 268 272 275 277 279 280 282 284 282 281 281 280 282 283 284 286 287 289 290 292 292 291 289 288 287 285 286 287 285 285 286
247 249 252 255 257 260 262 263 262 262 266 267 266 263 261 260 262 264 267 271 273 274 277 279 281 281 279 279 279 279 280 281 284 286 285 286 288 290 290 289 289 288 286 284 285 287 286 286 286
259 257 260 262 262 261 264 267 267 268 272 270 269 265 263 263 264 267 269 272 274 275 275 278 279 279 278 279 280 281 281 281 283 285 285 284 285 287 288 288 287 287 287 286 287 285 284 284 284
274 271 270 270 268 267 269 271 271 272 274 272 268 268 267 267 266 269 272 274 276 276 275 277 277 277 278 280 281 282 283 282 283 284 285 284 284 285 286 288 289 288 286 287 287 286 284 284 284
274 277 275 274 273 274 276 276 276 274 275 275 270 268 269 266 270 273 275 274 274 276 276 277 277 276 278 281 281 281 283 282 282 285 287 288 286 285 287 288 288 288 288 288 286 284 285 283 283
276 279 279 282 279 280 281 280 276 271 274 275 274 271 268 269 271 271 274 277 278 280 282 279 277 274 276 278 279 280 281 282 284 286 287 288 287 288 288 288 288 288 289 288 285 283 283 283 284
283 282 280 284 286 287 284 285 276 274 276 277 277 276 273 272 271 272 276 282 283 283 282 281 280 278 279 280 280 281 283 284 285 287 289 291 291 292 290 289 288 288 289 288 286 284 284 284 286
287 286 283 284 284 286 284 283 281 278 280 280 281 279 277 275 272 273 276 281 282 282 284 286 285 283 284 285 285 285 286 287 287 288 290 291 291 292 292 292 292 291 290 290 288 286 286 286 286
292 291 287 283 282 282 282 281 281 282 282 284 285 279 276 274 273 275 279 280 283 284 283 286 288 287 286 286 288 288 288 290 291 292 292 292 293 294 293 293 294 293 292 291 292 289 288 288 287
296 295 289 288 292 287 284 285 286 283 284 285 287 282 276 279 279 277 280 283 286 287 287 289 288 288 288 288 290 293 292 294 295 295 292 292 294 295 295 296 298 295 294 294 294 291 289 289 288
310 306 305 305 303 297 291 293 296 296 293 289 284 280 275 278 275 276 281 287 288 291 292 293 292 291 291 292 294 296 296 298 299 298 295 295 296 296 297 299 299 298 297 297 297 294 291 289 289
315 315 314 313 308 304 306 307 304 305 302 298 291 283 277 275 276 280 285 288 292 295 296 298 298 294 293 296 298 299 300 302 302 300 300 300 300 300 300 302 301 300 299 298 298 296 295 293 292
329 326 321 320 319 314 315 314 312 314 311 308 302 290 283 283 286 287 288 290 294 297 299 303 303 302 300 302 303 302 302 303 301 302 303 304 305 306 304 303 303 303 302 300 300 299 297 295 295
344 340 333 325 322 320 323 324 317 316 312 311 302 294 290 291 290 288 290 292 295 297 302 305 305 305 305 306 305 304 306 306 305 305 307 308 308 308 309 307 306 306 306 305 305 304 301 300 299
343 341 338 328 325 320 321 325 320 313 313 311 307 300 296 294 293 293 294 296 300 302 305 307 309 309 311 311 309 308 309 308 309 310 311 311 312 313 312 310 310 311 310 309 308 307 305 304 301
Height
5859 5861 5862 5865 5866 5868 5868 5870 5870 5870 5871 5871 5872 5872 5873 5875 5876 5879 5878 5877 5877 5877 5877 5877 5877 5877 5877 5876 5876 5876 5875 5875 5875 5875 5874 5874 5873 5873 5873 5872 5871 5871 5870 5870 5869 5868 5867 5867 5866
5856 5858 5860 5862 5863 5865 5867 5868 5868 5868 5869 5869 5870 5871 5872 5872 5873 5874 5875 5875 5875 5876 5876 5876 5876 5876 5875 5875 5875 5874 5874 5874 5873 5873 5872 5872 5871 5871 5870 5870 5869 5868 5868 5867 5866 5865 5865 5864 5863
5853 5855 5857 5859 5860 5863 5865 5865 5866 5866 5867 5867 5868 5868 5870 5870 5871 5872 5873 5873 5874 5874 5874 5874 5874 5874 5873 5873 5873 5873 5872 5872 5871 5871 5870 5870 5869 5869 5868 5867 5866 5865 5865 5864 5863 5863 5862 5862 5861
5850 5852 5854 5856 5858 5860 5861 5863 5863 5864 5865 5865 5866 5866 5867 5869 5869 5870 5871 5871 5872 5872 5872 5872 5872 5872 5872 5871 5871 5871 5870 5870 5869 5869 5868 5868 5867 5866 5866 5865 5864 5863 5862 5861 5860 5860 5859 5859 5858
5847 5849 5851 5853 5855 5857 5858 5860 5860 5861 5863 5863 5863 5864 5865 5867 5867 5867 5868 5869 5869 5870 5870 5871 5870 5870 5870 5869 5869 5868 5868 5868 5867 5866 5866 5865 5865 5864 5863 5862 5861 5860 5859 5858 5857 5856 5856 5855 5855
5845 5846 5849 5850 5852 5854 5855 5856 5858 5859 5860 5861 5861 5862 5864 5864 5865 5865 5866 5866 5867 5867 5867 5868 5868 5868 5867 5867 5866 5866 5866 5865 5865 5864 5864 5863 5862 5862 5861 5860 5858 5857 5856 5855 5854 5853 5853 5852 5851
5842 5843 5845 5848 5849 5851 5852 5853 5855 5857 5858 5858 5859 5860 5861 5861 5862 5863 5863 5864 5865 5865 5865 5865 5865 5865 5865 5864 5864 5864 5863 5863 5863 5862 5861 5860 5859 5858 5857 5856 5855 5854 5853 5852 5851 5850 5849 5848 5847
5838 5841 5842 5844 5846 5848 5850 5851 5852 5854 5855 5856 5857 5857 5858 5859 5860 5860 5861 5862 5862 5863 5863 5862 5862 5861 5862 5861 5861 5861 5860 5860 5860 5859 5858 5857 5856 5855 5854 5853 5852 5850 5849 5848 5847 5846 5845 5844 5843
5835 5839 5839 5841 5843 5845 5847 5848 5849 5851 5852 5853 5854 5855 5856 5856 5857 5857 5858 5859 5859 5860 5860 5859 5859 5859 5859 5858 5858 5858 5857 5857 5856 5855 5855 5854 5853 5851 5850 5849 5848 5847 5846 5844 5843 5842 5841 5840 5839
5833 5835 5837 5838 5840 5842 5844 5845 5847 5848 5849 5850 5851 5851 5852 5854 5855 5855 5855 5856 5856 5857 5857 5856 5855 5855 5855 5855 5855 5854 5854 5853 5853 5851 5851 5850 5849 5848 5846 5846 5844 5843 5842 5840 5839 5838 5837 5835 5834
5831 5833 5834 5836 5837 5839 5841 5842 5844 5845 5846 5847 5848 5848 5849 5850 5851 5852 5852 5853 5853 5853 5853 5853 5852 5852 5852 5852 5851 5851 5850 5849 5848 5847 5846 5845 5844 5844 5842 5841 5840 5839 5837 5836 5835 5834 5832 5831 5830
5829 5831 5832 5834 5835 5836 5838 5839 5841 5842 5844 5844 5844 5845 5846 5847 5848 5848 5849 5849 5849 5849 5849 5849 5849 5849 5848 5848 5848 5847 5846 5845 5844 5843 5842 5841 5841 5840 5838 5837 5836 5834 5833 5832 5831 5829 5828 5827 5825
5827 5829 5830 5831 5832 5833 5835 5836 5838 5839 5840 5840 5841 5842 5842 5843 5844 5844 5845 5845 5845 5845 5846 5846 5845 5845 5845 5844 5844 5843 5842 5841 5840 5839 5838 5837 5836 5835 5834 5832 5831 5830 5828 5827 5826 5824 5823 5822 5821
5825 5827 5828 5829 5830 5831 5833 5833 5835 5836 5837 5837 5838 5838 5839 5839 5840 5840 5841 5841 5841 5841 5841 5841 5841 5840 5840 5840 5839 5839 5838 5837 5836 5835 5834 5832 5831 5830 5829 5828 5826 5825 5823 5821 5820 5819 5818 5816 5815
5824 5825 5826 5827 5828 5829 5830 5831 5832 5832 5833 5834 5834 5834 5835 5836 5836 5836 5836 5837 5837 5837 5837 5836 5836 5836 5836 5835 5835 5834 5833 5832 5831 5830 5829 5828 5827 5825 5824 5823 5821 5820 5818 5816 5815 5813 5812 5811 5809
5822 5823 5825 5826 5826 5826 5829 5829 5829 5829 5829 5829 5830 5830 5831 5831 5831 5832 5832 5832 5832 5832 5832 5832 5831 5831 5831 5830 5830 5829 5828 5828 5826 5825 5824 5823 5821 5819 5818 5816 5815 5814 5812 5810 5809 5807 5806 5805 5803
5820 5821 5821 5823 5823 5823 5824 5824 5825 5825 5825 5825 5825 5825 5826 5827 5827 5828 5828 5828 5827 5827 5827 5827 5826 5826 5825 5825 5824 5824 5823 5822 5821 5819 5818 5817 5815 5814 5812 5810 5809 5807 5806 5804 5803 5801 5800 5799 5797
5818 5818 5818 5818 5819 5820 5820 5820 5820 5820 5820 5821 5821 5821 5821 5822 5823 5823 5823 5823 5822 5822 5822 5822 5821 5820 5820 5819 5818 5818 5817 5817 5815 5814 5813 5811 5810 5808 5806 5805 5803 5801 5800 5798 5796 5795 5793 5792 5790
5816 5815 5815 5815 5815 5816 5816 5816 5816 5816 5816 5817 5816 5816 5816 5817 5818 5818 5819 5818 5817 5817 5817 5817 5816 5815 5815 5814 5812 5812 5811 5810 5809 5808 5807 5805 5803 5802 5800 5798 5797 5794 5793 5791 5789 5788 5786 5784 5783
5813 5812 5812 5813 5812 5812 5812 5812 5812 5812 5812 5812 5812 5812 5812 5813 5814 5814 5814 5813 5813 5812 5811 5811 5811 5810 5809 5808 5807 5806 5806 5805 5803 5802 5800 5798 5796 5795 5793 5792 5790 5788 5786 5784 5782 5780 5778 5777 5775
5811 5810 5810 5810 5809 5809 5809 5810 5810 5809 5808 5808 5808 5808 5809 5809 5809 5809 5809 5809 5808 5807 5807 5805 5805 5804 5803 5802 5802 5801 5800 5799 5797 5796 5794 5791 5789 5787 5785 5784 5782 5780 5778 5776 5774 5772 5771 5769 5767
5809 5808 5807 5807 5806 5806 5807 5806 5807 5806 5806 5806 5805 5805 5805 5805 5805 5805 5805 5805 5804 5803 5802 5800 5800 5799 5798 5797 5796 5795 5794 5793 5791 5789 5787 5785 5782 5780 5778 5776 5774 5773 5771 5769 5767 5765 5763 5761 5760
5806 5805 5805 5804 5803 5803 5803 5803 5804 5803 5803 5803 5802 5802 5802 5802 5802 5801 5801 5801 5800 5799 5798 5796 5795 5794 5793 5791 5790 5789 5787 5786 5784 5782 5780 5778 5775 5773 5770 5769 5767 5765 5763 5761 5759 5757 5755 5753 5751
5803 5803 5802 5801 5801 5801 5801 5801 5801 5800 5800 5800 5799 5798 5798 5798 5798 5798 5798 5797 5796 5794 5793 5792 5791 5789 5788 5787 5785 5783 5781 5779 5777 5776 5773 5771 5768 5766 5763 5761 5760 5758 5756 5754 5751 5749 5747 5745 5743
5801 5801 5800 5799 5798 5798 5798 5797 5798 5796 5796 5796 5795 5795 5795 5795 5794 5795 5794 5793 5792 5790 5789 5787 5785 5784 5783 5781 5779 5777 5775 5773 5771 5769 5766 5764 5762 5759 5757 5755 5753 5750 5748 5746 5743 5741 5739 5737 5735
5799 5798 5798 5796 5795 5796 5795 5795 5795 5794 5793 5792 5792 5791 5791 5791 5791 5791 5790 5790 5788 5786 5785 5783 5781 5779 5777 5776 5774 5772 5770 5767 5765 5762 5760 5758 5755 5753 5750 5748 5746 5743 5741 5739 5736 5734 5732 5730 5727
5798 5797 5796 5795 5794 5793 5793 5792 5792 5791 5790 5789 5789 5788 5788 5788 5788 5787 5787 5786 5784 5782 5780 5778 5776 5774 5772 5771 5769 5767 5765 5762 5759 5757 5754 5751 5748 5745 5743 5741 5739 5737 5734 5732 5729 5727 5725 5722 5719
5797 5796 5795 5794 5792 5791 5791 5791 5790 5788 5788 5787 5786 5785 5785 5784 5784 5784 5783 5782 5780 5779 5777 5773 5771 5769 5768 5766 5764 5762 5759 5757 5754 5751 5749 5746 5743 5740 5737 5735 5733 5731 5728 5726 5723 5720 5717 5714 5711
5797 5796 5794 5793 5791 5790 5789 5791 5788 5786 5785 5784 5783 5782 5782 5782 5781 5781 5780 5778 5777 5775 5773 5770 5768 5766 5764 5761 5759 5757 5754 5751 5749 5746 5744 5741 5738 5735 5732 5729 5727 5725 5722 5719 5716 5713 5710 5707 5704
5796 5795 5793 5792 5790 5789 5788 5791 5786 5785 5783 5782 5781 5780 5779 5779 5778 5777 5776 5775 5774 5772 5770 5767 5765 5762 5760 5758 5755 5753 5750 5747 5744 5742 5739 5736 5733 5730 5727 5724 5722 5719 5716 5713 5710 5706 5703 5700 5697